Temperature
23 23 23 24 24 25 25 25 24 24 25 25 24 24 24 25 24 24 24 24 23 23 23 22 22 22 21 21 21 20 19 19 18 18 17 17 17 16 16 16 15 15 15 14
23 23 24 25 25 25 25 24 24 25 26 25 25 24 24 25 24 24 24 24 23 23 23 22 22 21 21 21 20 20 19 19 18 18 17 17 17 16 16 16 15 15 15 14
23 24 25 25 25 25 25 24 25 25 26 26 25 23 24 25 24 24 24 23 23 23 23 22 22 21 21 21 20 20 19 19 18 18 17 17 16 16 16 16 16 15 15 14
23 25 25 25 25 25 24 26 26 26 25 24 25 22 23 24 24 24 23 23 23 22 22 22 21 21 20 20 20 20 19 19 18 18 17 17 17 16 16 16 16 15 15 15
24 25 25 25 25 26 26 26 26 26 25 25 25 23 22 23 22 23 23 23 22 22 22 21 21 21 20 20 19 19 19 19 18 18 17 17 16 16 16 16 16 15 15 15
25 26 26 26 26 26 26 26 26 26 25 23 25 24 22 23 22 23 23 23 22 21 21 21 20 20 20 19 19 19 19 18 18 18 17 17 16 16 16 16 16 16 15 15
25 26 26 27 26 26 26 25 24 23 23 23 25 24 22 23 23 23 23 22 21 21 20 20 20 19 19 19 19 18 18 18 18 17 17 17 16 16 16 16 16 16 15 15
24 24 26 26 26 25 25 24 23 23 23 24 25 23 22 23 23 23 22 21 21 20 20 19 19 19 18 18 18 18 18 17 17 17 17 17 17 16 16 16 16 16 16 15
25 24 26 26 26 26 25 24 25 24 24 24 24 22 22 23 23 22 22 21 21 20 19 19 18 18 18 18 17 17 17 17 17 17 17 17 16 16 16 16 16 16 15 15
26 25 26 26 26 27 27 26 26 25 24 24 23 23 22 22 22 22 21 21 20 19 19 18 18 18 17 17 17 17 17 17 17 17 17 16 16 16 16 16 16 15 15 15
26 25 25 26 25 26 26 26 25 25 25 24 23 22 24 22 22 21 21 20 20 19 18 18 17 17 17 17 17 17 17 17 17 16 16 16 16 16 15 15 15 15 15 15
27 26 25 26 27 27 27 26 26 24 25 25 24 21 24 22 22 21 21 20 19 19 18 17 17 17 16 16 16 16 16 16 16 16 16 16 15 15 15 15 15 15 15 15
26 26 25 25 25 26 26 26 26 26 25 25 24 21 23 22 21 21 20 19 19 18 18 17 16 16 16 16 16 16 16 15 15 15 15 15 15 15 15 15 15 14 14 15
24 26 26 25 25 26 26 26 26 26 25 25 24 21 22 21 21 20 20 19 18 18 17 17 16 16 16 15 15 15 15 15 15 15 15 15 14 14 14 14 14 14 14 14
26 26 26 26 26 26 26 26 26 25 25 25 24 22 22 21 21 20 19 19 18 18 17 16 16 16 15 15 15 15 15 14 14 14 14 14 14 14 14 14 14 14 14 13
26 26 26 26 26 26 25 25 25 25 25 24 24 23 23 22 21 20 19 18 18 17 17 16 16 15 15 15 15 14 14 14 14 14 14 13 13 13 13 13 13 13 13 13
26 26 25 25 26 25 24 25 25 25 25 24 23 23 22 21 20 20 19 18 17 17 16 16 15 15 15 15 14 14 14 14 14 13 13 13 13 13 13 13 13 13 13 12
25 25 25 25 25 24 24 25 25 25 24 25 24 23 22 21 20 19 19 18 17 16 16 15 15 15 15 14 14 14 14 13 13 13 13 12 12 12 12 12 12 12 12 12
25 24 24 24 24 24 23 24 24 24 23 24 23 23 22 20 20 19 18 17 16 16 15 15 14 14 14 14 14 13 13 13 13 12 12 12 12 12 12 12 12 12 12 12
24 24 24 24 23 23 24 24 24 24 22 23 23 22 21 20 19 18 17 16 16 15 14 14 14 14 13 13 13 13 13 12 12 12 11 11 11 11 11 11 11 11 11 11
23 23 22 22 23 24 23 23 23 22 22 23 22 22 21 20 19 18 17 16 15 14 14 13 13 13 13 12 12 12 12 12 12 11 11 11 11 11 11 11 11 11 11 11
24 23 23 23 23 22 22 22 22 22 22 22 21 21 20 19 17 17 16 15 14 14 13 13 13 12 12 12 12 12 11 11 11 11 11 11 11 11 11 11 10 10 10 10
24 24 23 23 22 21 21 22 21 21 21 21 20 19 19 18 17 16 15 15 14 13 13 13 12 12 12 12 11 11 11 11 11 10 10 10 10 10 10 10 10 10 10 9
24 24 22 22 21 21 21 21 20 20 20 19 19 18 18 17 16 15 15 14 14 13 13 12 12 12 12 11 11 11 11 10 10 10 10 10 10 10 10 9 9 9 9 9
22 22 22 22 21 21 20 20 19 19 19 18 18 17 17 16 16 15 14 14 13 13 12 12 12 11 11 11 11 11 10 10 10 10 10 10 9 9 9 9 9 9 9 9
22 21 21 21 21 20 19 19 18 18 17 17 17 16 16 16 15 14 14 13 13 12 12 12 11 11 11 11 11 10 10 10 10 9 9 9 9 9 8 8 8 8 8 8
Wind_Speed
8 7 6 7 8 6 4 6 7 7 6 5 7 7 4 5 5 4 4 4 5 7 8 8 6 5 5 4 5 6 5 5 4 2 1 2 1 2 1 1 2 2 3 4
6 6 6 5 5 4 3 5 7 7 7 7 8 8 7 7 6 5 5 5 6 6 9 8 6 5 3 4 4 4 5 5 5 3 1 1 0 1 0 1 0 1 3 3
6 5 6 7 7 5 5 5 7 8 7 7 8 7 8 8 8 7 7 7 6 5 7 8 6 6 4 4 3 3 3 5 5 4 1 1 1 2 1 1 1 1 2 1
3 4 6 7 6 5 5 5 6 8 6 5 7 5 4 7 8 7 7 6 6 6 6 6 5 5 5 3 3 2 3 3 4 4 2 0 1 1 2 1 0 2 2 1
5 6 6 5 4 2 3 4 4 6 6 5 6 5 5 5 6 6 6 6 6 6 6 6 6 5 4 4 3 2 3 3 3 2 2 1 2 2 2 2 2 2 2 2
6 5 3 3 4 2 3 5 6 5 4 3 5 6 4 4 5 6 7 7 7 7 7 7 6 5 5 5 4 2 3 3 3 1 1 3 3 3 3 3 3 2 2 2
7 6 3 3 4 5 6 4 3 4 3 3 4 6 5 7 7 8 8 8 8 7 7 7 6 5 5 4 3 2 2 1 1 1 3 3 3 3 4 3 3 3 3 2
6 7 6 3 2 3 5 3 2 2 3 4 5 6 7 9 9 9 9 8 8 8 7 7 6 5 4 3 2 1 1 1 1 2 4 3 2 2 2 2 3 3 2 2
3 6 6 4 4 4 3 4 6 3 3 3 6 8 9 9 9 8 9 8 7 7 7 7 6 5 4 3 2 2 2 1 2 3 3 3 3 3 3 3 3 3 3 3
2 5 7 5 4 4 4 4 3 3 1 2 8 10 8 10 8 8 8 8 7 7 7 6 5 5 4 3 3 3 2 2 2 3 3 3 2 3 3 4 4 4 5 4
2 3 7 7 4 4 4 3 2 3 3 1 3 4 7 11 9 8 8 7 7 6 6 6 5 5 4 4 3 3 3 3 3 4 4 4 3 2 3 3 4 4 5 6
2 3 6 7 5 3 3 3 3 3 3 2 1 5 8 10 9 9 9 7 6 6 6 6 5 5 5 5 4 4 4 4 4 4 5 5 4 4 4 4 4 5 6 6
5 3 4 7 6 7 5 4 5 5 4 3 1 7 9 10 9 8 8 7 6 6 6 6 5 5 5 4 4 4 4 4 4 4 5 5 5 4 5 5 5 5 6 6
3 6 4 2 1 2 5 4 4 5 4 2 2 10 11 10 9 8 7 7 6 5 5 5 4 4 4 4 4 4 4 4 4 4 4 4 6 5 5 5 5 5 5 6
5 7 5 3 1 1 3 4 4 6 5 3 3 9 11 11 9 8 7 6 5 5 4 4 4 4 3 4 4 4 5 5 4 4 4 4 6 6 6 6 6 6 5 7
5 7 6 5 5 4 5 6 6 5 3 2 4 4 8 11 9 8 7 6 5 4 4 4 4 4 3 4 4 4 4 4 4 4 5 5 6 6 6 6 7 7 7 7
5 7 7 6 5 6 7 7 8 7 5 5 5 5 12 11 10 8 6 6 4 3 3 3 3 3 3 4 4 4 4 5 4 4 5 5 6 6 6 7 7 7 7 7
8 8 5 7 6 8 2 3 3 3 4 4 5 7 11 9 7 6 7 6 4 3 3 3 3 4 4 4 4 4 4 5 5 5 6 6 6 6 6 6 7 7 7 7
8 7 6 6 7 4 5 5 5 4 4 4 6 8 9 8 7 6 6 5 4 4 3 3 3 4 4 5 5 5 5 5 5 5 6 7 7 7 7 7 7 7 7 7
7 8 7 7 7 5 4 8 5 3 4 6 7 9 9 9 6 5 6 5 5 4 3 3 3 4 4 5 5 5 5 5 5 6 6 7 7 7 7 7 7 6 7 7
7 7 9 9 8 1 8 8 6 4 2 7 7 8 9 7 3 5 7 5 4 3 2 2 2 3 3 4 5 5 5 5 6 6 6 7 7 8 8 6 6 7 7 7
7 6 8 8 8 3 8 6 3 3 7 7 5 5 6 6 6 6 6 4 3 2 1 1 1 2 3 3 4 5 4 5 6 6 6 7 7 8 8 6 6 7 7 7
4 2 2 1 3 7 5 4 5 6 5 5 4 5 6 6 6 5 4 3 2 2 0 1 1 2 3 3 3 5 5 5 6 6 6 7 7 7 6 6 6 7 6 6
3 2 1 1 3 5 5 4 4 3 4 4 4 4 4 4 4 3 3 2 2 1 0 1 2 3 3 4 3 4 5 5 7 7 6 6 7 7 7 6 5 5 6 6
2 0 3 5 2 3 4 4 4 3 3 3 3 2 2 3 3 2 2 2 1 1 1 1 2 3 4 5 4 4 4 6 7 7 7 6 6 6 6 6 6 7 6 6
5 6 6 4 2 2 2 3 4 3 3 2 2 2 1 1 2 2 2 1 1 1 2 2 2 3 5 6 6 5 4 5 6 7 7 6 5 5 6 6 8 10 10 13
Wind_Direction
190 198 199 195 204 228 200 164 149 140 155 147 124 116 116 95 86 87 105 117 125 136 124 115 120 123 132 129 125 130 138 137 118 88 46 32 36 335 7 32 69 3 342 353
184 199 194 177 201 220 180 156 151 146 154 138 124 113 106 93 91 73 76 85 99 113 122 120 124 121 131 122 114 130 132 122 117 124 164 187 137 287 276 340 86 12 351 347
176 169 177 174 187 176 181 172 169 154 145 142 124 108 110 103 91 78 73 70 75 79 105 119 120 120 110 100 112 113 114 132 136 147 135 356 339 291 302 257 175 224 250 280
153 177 186 183 179 178 173 169 178 163 169 170 157 126 120 114 99 87 79 76 75 73 77 89 95 104 117 114 104 109 117 116 123 136 140 296 288 289 288 311 236 265 234 213
162 167 181 180 168 218 149 158 189 203 196 189 166 132 116 110 105 94 89 83 78 80 80 80 80 77 79 80 74 53 85 87 93 97 127 229 285 302 317 319 294 276 261 227
147 165 184 154 157 202 178 197 206 225 229 209 178 134 115 120 114 102 91 85 79 71 73 74 76 74 70 66 58 37 49 69 76 52 252 229 254 274 284 285 286 285 271 247
157 164 163 181 177 187 221 221 193 196 192 190 137 104 98 94 95 94 88 80 77 72 70 68 66 69 73 75 67 42 43 62 110 240 261 254 243 262 270 274 279 272 270 266
169 160 165 190 236 221 218 240 255 232 186 162 147 115 112 105 96 94 91 86 82 79 74 70 67 66 69 69 68 39 33 24 325 272 279 280 264 245 255 264 279 277 269 265
186 143 151 175 235 263 203 207 243 259 236 173 129 115 118 115 109 103 97 90 81 77 74 71 64 65 70 64 51 37 36 13 336 308 297 305 323 333 324 306 290 285 278 271
246 144 157 172 227 243 294 289 254 256 250 169 149 154 155 146 130 114 100 85 76 70 68 67 60 55 55 50 39 36 21 360 348 333 330 337 336 333 324 317 309 309 307 298
224 174 168 180 215 211 214 242 292 298 277 280 151 107 127 141 132 120 107 97 84 77 73 71 60 50 47 46 40 31 13 357 2 351 339 338 336 328 320 308 304 298 286 280
270 253 188 184 185 234 269 282 274 285 291 296 113 111 116 122 118 114 109 100 88 79 76 69 61 50 42 34 26 24 15 12 7 352 343 345 346 329 309 307 306 303 303 301
338 277 193 174 179 199 218 250 284 289 284 267 228 132 132 125 120 116 112 106 95 81 76 70 62 53 39 32 22 18 18 13 6 359 350 342 331 328 320 314 309 313 313 312
298 277 275 255 350 191 200 211 258 279 272 268 131 137 152 146 137 128 120 113 104 87 73 64 57 54 36 29 18 18 12 10 9 9 352 339 332 331 322 318 317 315 318 315
259 276 282 274 263 291 265 248 242 257 273 276 137 144 161 157 147 139 131 117 106 90 76 66 51 45 28 27 20 19 4 1 2 6 354 339 332 335 336 335 324 315 309 308
253 276 270 253 225 223 241 241 241 248 247 200 153 133 139 143 138 139 136 125 109 87 65 53 44 37 17 15 13 12 356 350 351 356 351 342 340 339 335 329 327 325 316 308
245 259 279 270 227 219 232 222 219 222 213 201 203 159 142 143 149 150 143 131 116 93 67 44 31 26 5 7 12 6 349 343 349 359 354 347 339 335 329 328 324 315 309 302
275 276 267 264 241 244 129 80 140 185 207 187 140 132 143 145 140 137 131 124 112 96 73 42 21 11 1 9 8 356 350 354 0 2 350 342 336 334 324 316 311 307 309 307
250 270 275 266 261 249 168 160 160 178 207 179 159 140 136 133 139 142 124 118 111 94 71 42 15 4 0 4 357 348 347 355 1 355 341 337 334 328 316 310 305 304 306 305
239 248 253 263 262 260 129 131 141 176 204 174 161 148 147 155 178 163 134 117 101 83 62 39 8 358 360 355 346 338 342 353 353 345 334 329 321 316 305 303 304 303 301 297
202 220 234 251 259 264 113 130 151 194 162 137 147 149 162 178 144 119 124 113 104 93 71 34 8 1 352 342 336 337 346 343 337 331 322 315 313 310 303 304 308 307 305 304
206 212 217 230 241 199 131 149 172 94 101 118 123 132 136 120 108 113 121 121 121 111 78 16 357 347 332 329 334 335 335 332 326 317 310 308 307 310 318 310 306 306 306 305
229 300 331 344 78 99 131 117 87 96 113 113 113 114 129 133 131 129 132 133 136 138 113 348 334 315 312 326 337 321 324 323 314 307 305 303 305 308 314 314 313 311 310 306
200 70 341 329 132 136 141 124 111 109 107 99 105 114 134 140 143 141 145 155 159 160 210 303 305 308 317 325 311 308 318 318 315 309 307 309 313 316 320 316 304 304 305 304
7 34 259 257 203 163 169 156 144 125 125 133 130 137 152 155 162 160 176 185 178 206 250 276 296 303 305 305 300 306 313 315 313 313 313 312 313 310 310 307 298 297 288 285
250 246 246 249 198 192 166 145 153 158 172 173 167 173 172 185 191 187 194 177 220 257 274 286 294 297 301 304 306 306 307 310 314 315 313 309 310 307 304 304 303 294 288 288
Height
1487 1488 1490 1488 1486 1485 1485 1488 1494 1493 1490 1492 1497 1500 1500 1500 1501 1502 1504 1505 1507 1510 1512 1515 1518 1520 1522 1523 1524 1524 1525 1525 1525 1525 1525 1525 1524 1524 1523 1522 1520 1519 1518 1517
1488 1489 1484 1482 1483 1482 1484 1491 1493 1491 1487 1491 1496 1500 1500 1501 1502 1504 1505 1506 1508 1510 1512 1515 1518 1519 1521 1523 1523 1524 1525 1525 1525 1524 1524 1524 1524 1523 1522 1521 1520 1518 1517 1516
1487 1485 1481 1482 1484 1486 1488 1491 1491 1491 1489 1490 1496 1506 1503 1503 1504 1506 1507 1508 1509 1511 1513 1515 1517 1519 1521 1522 1523 1524 1524 1524 1523 1524 1524 1524 1523 1522 1522 1521 1519 1518 1516 1515
1485 1482 1481 1482 1484 1485 1491 1484 1485 1488 1495 1501 1498 1520 1510 1504 1506 1507 1509 1510 1511 1513 1514 1516 1518 1519 1520 1522 1522 1523 1523 1524 1523 1523 1522 1522 1522 1522 1521 1520 1519 1517 1516 1514
1485 1482 1482 1484 1483 1482 1484 1482 1484 1487 1492 1499 1497 1511 1515 1506 1510 1510 1510 1512 1513 1514 1516 1517 1518 1519 1520 1521 1522 1523 1523 1523 1522 1522 1522 1521 1521 1521 1520 1519 1518 1516 1515 1513
1480 1480 1480 1481 1480 1481 1482 1484 1486 1488 1494 1510 1500 1507 1520 1510 1510 1510 1511 1513 1514 1516 1517 1518 1519 1520 1520 1521 1521 1522 1522 1522 1521 1521 1521 1520 1520 1519 1519 1518 1517 1515 1514 1513
1484 1481 1480 1480 1482 1483 1483 1492 1506 1512 1514 1513 1495 1506 1517 1508 1508 1510 1512 1514 1516 1517 1518 1518 1519 1519 1520 1520 1520 1521 1521 1521 1520 1520 1520 1520 1519 1518 1517 1516 1515 1514 1513 1512
1490 1492 1482 1481 1483 1485 1486 1494 1511 1519 1516 1508 1497 1511 1514 1507 1509 1511 1513 1516 1517 1518 1519 1519 1520 1520 1520 1520 1520 1520 1520 1520 1519 1519 1519 1518 1518 1517 1516 1515 1514 1513 1512 1511
1485 1489 1480 1480 1480 1481 1487 1493 1488 1496 1499 1505 1506 1512 1511 1508 1510 1512 1515 1517 1518 1519 1520 1520 1521 1521 1520 1520 1520 1520 1519 1519 1518 1518 1517 1517 1516 1515 1514 1513 1512 1511 1510 1509
1477 1486 1481 1480 1480 1480 1480 1481 1485 1494 1505 1511 1510 1511 1514 1512 1512 1513 1515 1518 1519 1520 1520 1521 1521 1521 1521 1520 1520 1519 1519 1518 1517 1517 1516 1515 1514 1513 1512 1511 1510 1509 1508 1507
1473 1482 1485 1482 1484 1483 1482 1483 1485 1488 1491 1504 1514 1516 1499 1506 1509 1512 1515 1518 1520 1521 1521 1521 1521 1521 1521 1520 1519 1518 1518 1517 1516 1515 1514 1513 1512 1511 1510 1509 1508 1507 1505 1505
1472 1477 1484 1481 1476 1475 1477 1480 1484 1496 1495 1491 1503 1518 1500 1505 1509 1512 1515 1518 1520 1521 1521 1522 1521 1521 1520 1519 1518 1518 1517 1516 1515 1514 1513 1512 1511 1509 1508 1507 1506 1504 1503 1502
1475 1478 1488 1490 1486 1479 1479 1479 1479 1482 1487 1492 1503 1516 1502 1506 1510 1513 1515 1518 1520 1521 1521 1521 1521 1520 1519 1519 1518 1517 1516 1515 1514 1512 1511 1510 1509 1508 1507 1505 1504 1502 1501 1499
1478 1477 1483 1492 1487 1478 1480 1480 1480 1483 1491 1492 1495 1506 1504 1506 1509 1513 1515 1517 1519 1520 1521 1521 1520 1520 1519 1519 1518 1516 1515 1514 1513 1511 1510 1508 1507 1506 1504 1503 1501 1500 1498 1496
1475 1477 1474 1473 1473 1475 1478 1480 1480 1483 1483 1489 1492 1497 1500 1503 1507 1511 1514 1516 1518 1520 1520 1520 1520 1519 1519 1518 1517 1516 1514 1513 1512 1510 1508 1507 1505 1504 1502 1500 1499 1497 1495 1494
1473 1476 1473 1475 1472 1475 1479 1479 1480 1481 1482 1485 1489 1495 1494 1500 1506 1510 1513 1515 1517 1518 1519 1519 1519 1519 1518 1517 1516 1514 1513 1512 1510 1509 1507 1505 1503 1501 1499 1497 1496 1494 1492 1490
1472 1475 1478 1479 1472 1476 1484 1477 1478 1480 1479 1483 1490 1492 1493 1499 1504 1507 1510 1513 1515 1517 1518 1518 1518 1517 1517 1516 1514 1513 1511 1510 1509 1507 1505 1503 1501 1499 1496 1495 1493 1490 1489 1487
1474 1474 1476 1478 1479 1491 1479 1470 1471 1476 1478 1479 1483 1487 1492 1497 1502 1506 1509 1512 1514 1515 1516 1516 1516 1516 1515 1514 1513 1511 1510 1509 1507 1505 1503 1501 1498 1496 1494 1492 1489 1487 1486 1484
1472 1476 1479 1479 1482 1480 1476 1472 1473 1478 1481 1479 1483 1487 1493 1498 1502 1506 1508 1510 1512 1513 1514 1514 1514 1514 1513 1512 1511 1509 1508 1506 1505 1503 1500 1498 1496 1493 1491 1488 1486 1484 1482 1480
1473 1474 1479 1479 1485 1485 1474 1470 1472 1477 1484 1479 1481 1486 1492 1497 1502 1504 1506 1508 1510 1511 1512 1512 1512 1511 1510 1509 1508 1507 1506 1504 1502 1500 1498 1495 1493 1491 1488 1486 1483 1481 1479 1476
1476 1477 1480 1481 1481 1473 1471 1471 1474 1486 1483 1478 1481 1486 1490 1494 1498 1501 1503 1506 1507 1509 1509 1509 1509 1508 1508 1507 1506 1504 1503 1501 1499 1497 1495 1493 1490 1488 1485 1483 1480 1478 1475 1472
1468 1471 1474 1475 1480 1479 1472 1473 1476 1478 1477 1480 1483 1486 1490 1494 1497 1499 1501 1504 1505 1506 1507 1507 1506 1506 1505 1504 1503 1502 1500 1498 1496 1494 1492 1489 1487 1485 1482 1479 1477 1474 1471 1469
1462 1463 1465 1468 1474 1471 1472 1473 1475 1477 1479 1482 1484 1487 1490 1493 1496 1498 1500 1502 1503 1504 1504 1504 1504 1503 1502 1501 1500 1499 1497 1495 1493 1491 1488 1486 1484 1481 1479 1476 1473 1470 1468 1465
1458 1461 1465 1468 1469 1470 1472 1474 1476 1478 1480 1483 1485 1488 1490 1492 1495 1497 1499 1500 1501 1501 1501 1501 1501 1500 1499 1498 1497 1495 1494 1492 1490 1487 1485 1483 1480 1477 1475 1472 1469 1467 1464 1461
1462 1464 1466 1467 1469 1471 1473 1474 1476 1479 1481 1483 1485 1487 1489 1491 1493 1495 1496 1497 1498 1499 1499 1498 1498 1497 1496 1495 1493 1492 1490 1488 1486 1484 1481 1479 1476 1473 1470 1468 1466 1463 1460 1458
1463 1464 1467 1467 1467 1469 1471 1474 1476 1478 1480 1482 1484 1486 1488 1489 1491 1492 1493 1494 1495 1496 1496 1495 1494 1493 1492 1491 1489 1488 1486 1484 1482 1479 1477 1475 1472 1469 1466 1463 1460 1457 1456 1453